Location: Gebenbach
(49.5378°N, 11.8735°E)
Time: 14:53:37
(UTC+00:00)

Daily predictions for brighter satellites

Satellite Brightness Start Highest point End
(mag) Time Altitude Azimuth Time Altitude Azimuth Time Altitude Azimuth
SeaSat 1 4.2 16:22:19 10° ENE 16:24:50 14° NNE 16:27:22 10° N
Aureole 3 Rocket 4.2 16:21:31 10° SE 16:25:19 30° E 16:30:20 10° NNE
H-2A R/B 3.6 16:22:18 10° E 16:25:38 17° NE 16:28:58 10° NNE
Cosmos 2219 3.3 16:22:01 10° NNW 16:27:45 62° ENE 16:33:27 10° SE
H-2A R/B 3.7 16:24:35 10° S 16:28:58 53° W 16:33:25 10° NNW
Okean-O 3.8 16:26:12 10° ESE 16:29:35 22° ENE 16:32:59 10° NNE
ATLAS 5 CENTAUR R/B 3.5 16:26:33 10° WNW 16:30:03 22° NNW 16:33:59 10° NNE
USA 215 3.8 16:23:51 10° ENE 16:30:03 47° N 16:36:16 10° WNW
SMAP 3.1 16:25:26 10° SSE 16:30:06 85° ENE 16:34:48 10° NNW
Cosmos 1331 Rocket 4.0 16:25:46 10° SSW 16:30:54 73° ESE 16:36:04 10° NNE
Cosmos 2266 Rocket 4.5 16:25:07 10° NNW 16:31:20 71° W 16:37:37 10° S
ATLAS 2AS CENTAUR R/B 3.8 16:25:09 10° NW 16:32:02 33° NNE 16:38:30 10° E
FALCON 9 DEB 3.3 16:29:09 10° SW 16:32:18 54° SSE 16:35:28 10° ENE
FALCON 9 DEB 3.2 16:31:09 10° SW 16:34:18 58° SSE 16:37:27 10° ENE
Cosmos 2082 4.3 16:29:32 10° NNW 16:34:50 36° NE 16:40:06 10° ESE
CSL-04 DEB 4.3 16:30:54 10° NNE 16:34:52 83° ESE 16:38:47 10° SSW
Lacrosse 5 2.9 16:31:25 10° WNW 16:36:05 36° N 16:40:46 10° ENE
AQUARIUS 4.2 16:33:52 10° SSE 16:38:22 89° E 16:42:54 10° NNW
Cosmos 1953 Rocket 3.5 16:34:09 10° N 16:38:34 72° ENE 16:43:01 10° SSE
Cosmos 1656 4.2 16:36:23 10° S 16:41:28 38° ESE 16:46:39 10° NE
Cosmos 968 Rocket 3.7 16:37:24 10° NNW 16:42:30 49° ENE 16:47:30 10° SE
Cosmos 1408 3.8 16:40:29 10° NNE 16:43:20 21° ENE 16:46:11 10° ESE
Cosmos 2058 Rocket 3.4 16:42:49 10° SSE 16:47:06 45° E 16:51:25 10° NNE
ERBS 4.0 16:45:37 10° NW 16:48:19 22° N 16:50:48 11° NE
NOAA 12 4.4 16:43:01 10° S 16:48:19 75° WSW 16:53:40 10° NNW
Feng Yun 1-1 Rocket 4.4 16:42:29 10° SSE 16:48:19 65° ENE 16:54:12 10° N
FALCON 9 DEB 3.0 16:45:42 10° WSW 16:48:56 70° SSE 16:51:36 14° ENE
CZ-4B R/B 3.8 16:44:16 10° S 16:49:47 63° WSW 16:55:16 10° NNW
ADEOS Rocket 3.6 16:44:08 10° N 16:50:32 71° WNW 16:57:37 10° SSW
Cosmos 1689 Rocket 3.2 16:50:28 10° NE 16:52:51 23° E 16:55:14 10° SSE
USA 281 3.6 16:47:07 10° SSE 16:53:39 69° WSW 17:00:14 10° NNW
Cosmos 1076 Rocket 4.5 16:51:40 10° NNE 16:55:12 25° ENE 16:58:44 10° SE
IRS-1C Rocket 4.1 16:51:36 10° SSE 16:56:46 60° ENE 17:01:59 10° N
FALCON 9 DEB 3.4 16:53:57 10° WNW 16:57:20 52° NNE 16:59:43 17° E
FALCON 9 DEB 2.9 16:55:17 10° WSW 16:58:31 84° SSE 17:00:47 18° ENE
Cosmos 2227 Rocket 2.2 16:53:09 10° NNW 16:58:51 80° ENE 17:04:31 10° SSE
CZ-4C R/B 3.8 16:53:40 10° NW 16:59:13 29° NNE 17:04:26 14° ENE
Cosmos 1892 3.0 16:55:44 10° N 16:59:30 46° ENE 17:03:14 10° SSE
Cosmos 2263 Rocket 3.5 16:56:09 10° N 17:00:31 22° NE 17:03:25 15° ENE
CSL-04 Rocket 4.5 16:56:50 10° ESE 17:01:34 30° ENE 17:06:15 10° N
Cosmos 1939 Rocket 2.8 16:58:02 10° SSE 17:01:55 59° ENE 17:05:46 10° N
Cosmos 1302 Rocket 4.0 16:58:16 10° SSW 17:03:30 73° ESE 17:08:49 10° NNE
H-2A R/B 3.4 17:01:18 10° N 17:05:11 39° WNW 17:09:01 10° SW
USA 307 2.9 17:02:27 10° WNW 17:06:46 87° NNE 17:10:17 15° ESE
COSMO-SKYMED 1 2.8 17:02:54 10° NNE 17:07:07 48° E 17:11:19 10° S
SAR-Lupe-4 3.5 17:05:17 10° NNE 17:08:51 60° ESE 17:12:23 10° S
Cosmos 1300 3.2 17:07:30 10° SSW 17:11:17 61° WNW 17:15:05 10° N
USA 308 2.9 17:07:25 10° WNW 17:11:45 89° SSW 17:15:04 16° ESE
Cosmos 1486 Rocket 4.0 17:06:50 10° NNW 17:12:13 84° ENE 17:17:32 10° SSE
CZ-4B R/B 1.6 17:09:39 10° N 17:12:52 67° WNW 17:15:58 10° SSW
Cosmos 1400 Rocket 2.8 17:08:50 10° S 17:12:56 83° E 17:17:02 10° NNE
Cosmos 1697 Rocket 3.2 17:09:29 10° S 17:14:36 37° ESE 17:19:40 10° NE
Cosmos 1825 2.9 17:11:43 10° N 17:15:08 30° ENE 17:17:29 16° SE
ERS-2 2.7 17:13:00 10° N 17:16:38 61° WNW 17:20:13 10° SSW
Helios 1A Rocket 2.9 17:15:10 10° SSE 17:19:14 64° ENE 17:23:18 10° N
Meteor 2-8 Rocket 4.4 17:15:05 10° S 17:21:12 82° E 17:27:23 10° NNE
YAOGAN 1 2.7 17:17:27 10° SE 17:21:36 48° ENE 17:25:48 10° N
S3M 4.1 17:16:32 10° SSE 17:22:25 52° E 17:28:23 10° NNE
Cosmos 1503 Rocket 4.0 17:17:14 10° NNW 17:22:26 62° ENE 17:27:38 10° SE
CZ-4 R/B 4.3 17:18:28 10° SSE 17:22:37 78° ENE 17:26:49 10° N
BREEZE-M TANK 3.6 17:14:24 10° W 17:22:38 54° SSW 17:24:59 20° ESE
Cosmos 1340 3.4 17:22:36 10° NNW 17:26:20 55° W 17:30:01 10° S
SAR-Lupe-1 4.0 17:23:06 10° NNE 17:26:42 89° WNW 17:30:15 10° SSW
CZ-2D R/B 3.1 17:23:28 10° SSE 17:27:16 82° ENE 17:31:06 10° NNW
Cosmos 1812 Rocket 4.1 17:23:54 10° SSE 17:27:53 35° E 17:31:52 10° NNE
Meteor 2-1 Rocket 4.3 17:23:03 10° SSE 17:28:22 50° E 17:33:42 10° NNE
Okean O Rocket 3.9 17:25:02 10° SSW 17:28:45 27° W 17:32:29 10° NW
Cosmos 44 4.0 17:24:22 10° WSW 17:28:49 50° NW 17:33:26 11° NNE
CZ-4 R/B 1.2 17:26:14 10° SSE 17:30:04 66° ENE 17:33:54 10° N
SKYMED 3 4.5 17:26:51 10° NNE 17:31:13 83° ESE 17:35:34 10° SSW
Cosmos 1417 Rocket 4.4 17:26:23 10° S 17:32:37 75° E 17:38:58 10° NNE
Cosmos 1346 Rocket 2.7 17:30:11 10° NNW 17:34:12 87° E 17:38:12 10° SSE
Cosmos 2058 2.7 17:30:50 10° N 17:34:58 81° E 17:39:04 10° SSE
Cosmos 1354 Rocket 3.9 17:29:59 10° NNW 17:35:16 69° ENE 17:40:31 10° SSE
SL-4 R/B 1.6 17:31:44 10° WNW 17:35:18 83° NNE 17:36:32 40° E
Aureole 3 3.7 17:33:14 10° SSW 17:36:10 46° WNW 17:39:05 10° N
Cosmos 2151 3.7 17:34:06 10° N 17:37:31 31° ENE 17:37:31 31° ENE
Cosmos 2297 Rocket 3.3 17:32:49 10° NW 17:38:14 46° WSW 17:43:36 10° S
Cosmos 1980 Rocket 2.8 17:33:23 10° SSE 17:38:16 31° ESE 17:39:22 29° E
PSLV R/B 3.8 17:35:02 10° NNE 17:39:14 82° ESE 17:43:22 10° SSW
SJ-11-01 4.4 17:35:51 12° SE 17:39:59 51° ENE 17:44:32 10° N
Cosmos 1992 Rocket 3.9 17:34:56 10° S 17:40:03 63° ESE 17:45:13 10° NNE
Timation 1 Rocket 4.3 17:35:31 10° NNW 17:41:33 69° ENE 17:46:16 17° SE
Meteor 2-15 Rocket 4.4 17:36:53 10° S 17:42:56 65° E 17:49:02 10° NNE
CZ-2C R/B 3.2 17:38:03 10° SSE 17:43:49 78° ENE 17:49:23 10° NNW
CSL-04 Debris 4.1 17:38:58 10° SSE 17:44:20 62° ENE 17:49:45 10° N
Cosmos 1315 Rocket 2.7 17:42:46 10° S 17:46:42 68° E 17:50:43 10° NNE
CRYOSAT 2 4.3 17:44:43 10° N 17:49:33 61° E 17:54:22 10° S
Cosmos 1553 Rocket 4.2 17:44:27 10° SSW 17:50:48 76° W 17:57:04 10° N
Cosmos 220 Rocket 3.9 17:48:14 10° SSW 17:52:36 88° ESE 17:55:51 18° NNE
Ariane Rocket 4.0 17:53:41 28° NE 17:53:41 28° NE 17:57:21 10° N
Geosat 4.4 17:52:54 39° E 17:53:26 40° ESE 17:58:09 10° S
Meteor 2-15 4.4 17:48:15 10° S 17:54:25 87° W 18:00:35 10° N
SKYMED 2 4.1 17:50:57 10° N 17:55:15 58° WNW 17:59:30 10° SSW
BREEZE-M R/B 3.7 17:51:34 10° W 17:55:37 79° SSW 17:59:00 32° ESE
USA 305 3.6 17:52:18 10° WNW 17:56:27 50° SW 17:58:11 30° SSE
Meteor 2-10 Rocket 3.5 17:51:20 10° SSW 17:56:37 85° WNW 18:01:44 10° NNE
Cosmos 1455 2.1 17:54:45 10° S 17:58:32 86° W 18:02:23 10° N
Cosmos 2360 4.1 17:55:43 10° SSW 18:01:22 65° ESE 18:04:36 26° NE
SeaSat 1 2.6 18:00:38 46° E 18:01:25 51° NE 18:06:13 10° NNW
NOSS 3-4 (A) 3.8 17:55:19 10° NW 18:02:10 68° NE 18:05:39 34° ESE
NOSS 3-4 (C) 3.8 17:55:26 10° NW 18:02:16 68° NE 18:05:43 34° ESE
USA 306 3.7 17:58:50 10° WNW 18:02:56 45° SW 18:04:26 32° SSE
H-2A R/B 2.0 17:58:49 10° SSE 18:04:16 83° ENE 18:09:45 10° NNW
DEBRIS 4.4 17:44:39 10° WSW 18:04:38 67° SSE 18:06:54 40° E
Okean-O 3.5 18:01:26 10° S 18:05:45 51° W 18:10:07 10° NNW
MOS 1 Rocket 3.2 18:03:06 10° NNE 18:07:48 69° ESE 18:12:47 10° S
FALCON 9 DEB 3.9 18:05:18 10° W 18:07:57 44° NW 18:07:57 44° NW
FALCON 9 DEB 4.1 18:07:17 10° W 18:09:47 40° NW 18:09:47 40° NW
Cosmos 2278 3.7 18:06:05 10° S 18:11:38 58° ESE 18:12:45 49° ENE
USA 215 3.5 18:10:10 37° ENE 18:12:29 55° NNE 18:18:50 10° WNW
NOSS 3-3 (A) 3.8 18:06:48 10° SW 18:12:42 86° SE 18:16:10 30° NE
NOSS 3-3 (C) 3.8 18:06:55 10° SW 18:12:49 85° SE 18:16:14 31° NE
ATLAS 5 CENTAUR R/B 3.9 18:13:10 10° NW 18:16:28 18° N 18:17:34 17° NNE
Cosmos 1408 4.4 18:15:07 10° NNW 18:18:25 32° W 18:21:42 10° SSW
GEOS 3 Rocket 3.6 18:17:20 48° SE 18:18:55 90° WSW 18:24:21 10° NW
COSMOS 2455 4.4 18:14:54 10° NNW 18:19:13 20° NNE 18:19:43 19° NNE
Meteor 2-3 Rocket 3.8 18:13:47 10° N 18:19:26 56° ENE 18:19:36 56° E
Lacrosse 5 2.3 18:15:04 10° NW 18:19:57 45° NNE 18:20:11 45° NNE
ARGOS 3.0 18:17:21 30° SSE 18:20:07 84° ENE 18:25:35 10° NNW
Cosmos 44 Rocket 3.2 18:15:24 10° SSW 18:19:58 70° SE 18:19:58 70° SE
ATLAS 2AS CENTAUR R/B 2.8 18:16:41 10° NW 18:24:18 72° NE 18:26:17 50° ESE
SL-08 RB Rocket 4.3 18:26:12 43° N 18:26:12 43° N 18:29:21 10° N
ERBS 4.4 18:22:06 10° NW 18:23:42 23° NNW 18:23:42 23° NNW
Cosmos 1844 Rocket 4.2 18:28:24 10° NNW 18:31:40 22° NNE 18:31:40 22° NNE
Cosmos 2369 3.9 18:30:28 10° SW 18:36:10 69° WNW 18:39:12 28° NNE
SJ 16-02 3.6 18:32:42 10° N 18:33:43 15° N 18:33:43 15° N
Cosmos 1777 Rocket 3.9 18:33:20 10° NNW 18:38:35 86° WSW 18:38:35 86° WSW
Cosmos 2184 Rocket 4.3 18:35:15 10° N 18:40:24 51° NE 18:40:24 51° NE
CSL-04 Rocket 4.4 18:36:14 10° S 18:41:38 52° W 18:47:01 10° NNW
Meteor 2-17 Rocket 4.2 18:38:30 10° N 18:44:33 79° ENE 18:44:33 79° ENE
Cosmos 2263 Rocket 2.1 18:39:33 10° NNW 18:45:08 84° N 18:45:08 84° N
CZ-4C R/B 2.9 18:42:16 10° NW 18:49:06 61° NE 18:49:38 59° ENE
Cosmos 1697 Rocket 3.7 18:53:10 10° SW 18:58:30 43° NW 19:01:26 25° N
Cosmos 2074 Rocket 4.2 18:53:09 10° N 18:58:06 57° N 18:58:06 57° N
CZ-4 R/B 4.5 19:03:52 10° WSW 19:05:32 12° W 19:07:13 10° WNW
Cosmos 1980 Rocket 3.0 19:16:35 10° SW 19:21:12 46° W 19:21:12 46° W
SeaSat 1 4.4 19:40:26 26° W 19:40:26 26° W 19:43:27 10° NW
USA 215 4.1 19:57:31 46° WNW 19:57:31 46° WNW 20:01:56 10° WNW
Lacrosse 5 4.4 19:58:08 10° WNW 19:59:23 18° WNW 19:59:23 18° WNW
ATLAS 2AS CENTAUR R/B 4.1 20:08:20 10° NW 20:13:44 32° W 20:13:44 32° W
CZ-4C R/B 4.2 20:30:53 10° NW 20:34:50 33° WNW 20:34:50 33° WNW
